Hourly Weather Roundup
Issued by NWS Central Illinois

Home | Current Version | Previous Version | Graphics & Text | Print | Product List | Glossary On
Versions: 1 2 3 4 5 6 7 8 9 10 11 12 13 14 15 16 17 18 19 20 21 22 23 24 25 26 27 28 29 30 31 32 33 34 35 36 37 38 39 40 41 42 43 44 45 46 47 48 49 50
000
NZUS43 KILX 010410
HWRILX

AREA WEATHER ROUNDUP
NATIONAL WEATHER SERVICE, LINCOLN IL
1000 PM CST SAT JAN 31 2015


CITY           SKY/WX    TMP DP  RH WIND       PRES   REMARKS
BLOOMINGTON    LGT SNOW  33  33 100 S10       30.15F FOG     WCI  25
CHAMPAIGN      LGT RAIN  33  32  96 S3        30.16F FOG
DECATUR        CLOUDY    34  32  92 SE7       30.16F FOG     WCI  28
FLORA          CLOUDY    36  29  75 E10       30.15F WCI  29
GALESBURG      LGT SNOW  32  32 100 SE6       30.10F WCI  27
JACKSONVILLE   LGT RAIN  36  34  92 SE8       30.12F WCI  30
LACON          LGT RAIN  32  32  98 SE3       30.13S
LAWRENCEVILLE  CLOUDY    36  29  75 SE3       30.20S
LITCHFIELD     CLOUDY    35  29  79 SE6       30.12S WCI  30
$$


CITY           SKY/WX    TMP DP  RH WIND       PRES   REMARKS
LINCOLN        RAIN      35  33  94 S5        30.16S WCI  30
MACOMB         LGT SNOW  32  32 100 SE7       30.12F WCI  26
MATTOON        CLOUDY    33  31  92 SE5       30.16F WCI  29
MT CARMEL AP   CLOUDY    37  30  75 SE3       30.19R
OLNEY-NOBLE AP CLOUDY    36  28  75 CALM      30.16F
PARIS          RAIN      33  33  99 CALM      30.19F
PEORIA         LGT SNOW  34  32  92 S7        30.14F FOG     WCI  28
PONTIAC        LGT SNOW  33  33 100 S5        30.16S WCI  29
RANTOUL        LGT SNOW  34  33  97 S6        30.17S WCI  29
ROBINSON       CLOUDY    35  32  90 NE6       30.19F WCI  29
SPRINGFIELD    LGT RAIN  35  33  92 S7        30.14F WCI  29
TAYLORVILLE    DRIZZLE   32  32 100 SE5       30.14F WCI  27
$$

...REGIONAL REPORTS...


CITY           SKY/WX    TMP DP  RH WIND       PRES   REMARKS
CHICAGO O`HARE LGT SNOW  31  29  92 E7        30.15R VSB 1   WCI  24
KANKAKEE       LGT RAIN  33  32  98 S6        30.16F WCI  27
MOLINE         LGT RAIN  33  31  92 SE3       30.09F FOG
MOUNT VERNON   CLOUDY    37  27  65 E3        30.15F
PITTSFIELD     DRIZZLE   34  33  94 E7        30.09F WCI  28
QUINCY         LGT SNOW  33  31  92 E12       30.05F FOG     WCI  24
ROCKFORD       LGT SNOW  31  28  89 E7        30.15R VSB 1   WCI  24
$$


CITY           SKY/WX    TMP DP  RH WIND       PRES   REMARKS
BURLINGTON     LGT SNOW  33  32  96 S8        30.07F FOG     WCI  26
CEDAR RAPIDS   LGT SNOW  32  32 100 SE7       30.04F FOG     WCI  26
DES MOINES     LGT SNOW  34  31  88 E7        29.97F VSB 3/4 WCI  28
KIRKSVILLE     LGT SNOW  33  33 100 SE10      29.99F VSB 3/4 WCI  25
OTTUMWA        LGT SNOW  33  33 100 SE13      30.00F FOG     WCI  24
ST LOUIS       CLOUDY    41  25  53 SE12      30.09F WCI  34
$$


CITY           SKY/WX    TMP DP  RH WIND       PRES   REMARKS
TERRE HAUTE    MIX PCPN  33  31  92 SE5       30.21S FOG     WCI  29
EVANSVILLE     CLOUDY    40  25  55 E6        30.18F
INDIANAPOLIS   LGT SNOW  30  30 100 S6        30.21S FOG     WCI  24
LAFAYETTE      MIX PCPN  32  31  96 S5        30.19F FOG     WCI  27
MADISON        LGT SNOW  26  23  88 E12       30.15S FOG     WCI  16
MILWAUKEE      LGT SNOW  30  26  85 NE10      30.18R FOG     WCI  21
$$





USA.gov is the U.S. government's official web portal to all federal, state and local government web resources and services.